Satellite: MET-2/21 Catalog number: 22782 Epoch time: 13107.75803094 Element set: 716 Inclination: 082.5481 deg RA of node: 150.8699 deg Eccentricity: 0.0022427 Arg of perigee: 022.6303 deg Mean anomaly: 114.4755 deg Mean motion: 13.83701906 rev/day Decay rate: 3.6e-07 rev/day^2 Epoch rev: 99128 Checksum: 301
Satellite: OKEAN-4 Catalog number: 23317 Epoch time: 13108.49013428 Element set: 194 Inclination: 082.5366 deg RA of node: 105.6634 deg Eccentricity: 0.0022579 Arg of perigee: 066.5988 deg Mean anomaly: 094.3656 deg Mean motion: 14.84353399 rev/day Decay rate: 8.71e-06 rev/day^2 Epoch rev: 8 Checksum: 316
Satellite: NOAA-14 Catalog number: 23455 Epoch time: 13107.35213707 Element set: 275 Inclination: 098.8030 deg RA of node: 192.7096 deg Eccentricity: 0.0010060 Arg of perigee: 165.5901 deg Mean anomaly: 239.4076 deg Mean motion: 14.13900993 rev/day Decay rate: 4.9e-07 rev/day^2 Epoch rev: 94377 Checksum: 298
Satellite: NOAA-15 Catalog number: 25338 Epoch time: 13107.50772117 Element set: 696 Inclination: 098.7215 deg RA of node: 098.0542 deg Eccentricity: 0.0009555 Arg of perigee: 307.2494 deg Mean anomaly: 198.9353 deg Mean motion: 14.25200966 rev/day Decay rate: 1.21e-06 rev/day^2 Epoch rev: 77619 Checksum: 320
Satellite: RESURS Catalog number: 25394 Epoch time: 13107.80571699 Element set: 353 Inclination: 098.3565 deg RA of node: 086.5561 deg Eccentricity: 0.0002505 Arg of perigee: 083.7839 deg Mean anomaly: 337.4193 deg Mean motion: 14.24327047 rev/day Decay rate: 1.2e-07 rev/day^2 Epoch rev: 76776 Checksum: 318
Satellite: FENGYUN1 Catalog number: 25730 Epoch time: 13108.87308303 Element set: 853 Inclination: 098.8750 deg RA of node: 069.1296 deg Eccentricity: 0.0023018 Arg of perigee: 211.0580 deg Mean anomaly: 202.7790 deg Mean motion: 14.10383629 rev/day Decay rate: 1.131e-05 rev/day^2 Epoch rev: 71768 Checksum: 287
Satellite: OKEAN-0 Catalog number: 25860 Epoch time: 13107.85056190 Element set: 921 Inclination: 097.9846 deg RA of node: 071.1327 deg Eccentricity: 0.0001274 Arg of perigee: 074.4865 deg Mean anomaly: 318.5194 deg Mean motion: 14.74544239 rev/day Decay rate: 4.08e-06 rev/day^2 Epoch rev: 73946 Checksum: 316
Satellite: NOAA-16 Catalog number: 26536 Epoch time: 13107.36439828 Element set: 172 Inclination: 099.0488 deg RA of node: 159.5094 deg Eccentricity: 0.0009543 Arg of perigee: 308.8938 deg Mean anomaly: 111.9308 deg Mean motion: 14.12861132 rev/day Decay rate: 6.2e-07 rev/day^2 Epoch rev: 64798 Checksum: 330
Satellite: NOAA-17 Catalog number: 27453 Epoch time: 13107.47437271 Element set: 95 Inclination: 098.3150 deg RA of node: 124.7687 deg Eccentricity: 0.0010972 Arg of perigee: 349.6221 deg Mean anomaly: 172.7921 deg Mean motion: 14.24580734 rev/day Decay rate: 1.10e-06 rev/day^2 Epoch rev: 56207 Checksum: 296
Satellite: NOAA-18 Catalog number: 28654 Epoch time: 13107.49993308 Element set: 578 Inclination: 099.0940 deg RA of node: 074.8635 deg Eccentricity: 0.0014584 Arg of perigee: 023.9046 deg Mean anomaly: 124.3647 deg Mean motion: 14.11799096 rev/day Decay rate: 7.4e-07 rev/day^2 Epoch rev: 40749 Checksum: 341
Satellite: NOAA-19 Catalog number: 33591 Epoch time: 13107.43459443 Element set: 764 Inclination: 098.8998 deg RA of node: 049.9918 deg Eccentricity: 0.0013184 Arg of perigee: 239.0371 deg Mean anomaly: 269.8390 deg Mean motion: 14.11486854 rev/day Decay rate: 1.3e-07 rev/day^2 Epoch rev: 21592 Checksum: 342
/EX SB KEPS @ AMSAT $ORB13108.M Orbital Elements 13108.MISC
HR AMSAT ORBITAL ELEMENTS FOR MANNED AND MISCELLANEOUS SATELLITES FROM WA5QGD FORT WORTH,TX April 18, 2013 BID: ORB13108.M TO ALL RADIO AMATEURS BT
Satellite: HUBBLE Catalog number: 20580 Epoch time: 13107.72940891 Element set: 219 Inclination: 028.4702 deg RA of node: 309.1211 deg Eccentricity: 0.0003456 Arg of perigee: 063.1635 deg Mean anomaly: 029.3970 deg Mean motion: 15.03482263 rev/day Decay rate: 1.584e-05 rev/day^2 Epoch rev: 6058 Checksum: 270
Satellite: ISS Catalog number: 25544 Epoch time: 13108.15562633 Element set: 630 Inclination: 051.6481 deg RA of node: 046.2255 deg Eccentricity: 0.0010597 Arg of perigee: 153.3089 deg Mean anomaly: 352.6323 deg Mean motion: 15.52345674 rev/day Decay rate: 8.927e-05 rev/day^2 Epoch rev: 82538 Checksum: 299
Satellite: CO-58 Catalog number: 28895 Epoch time: 13107.54241172 Element set: 453 Inclination: 097.8781 deg RA of node: 325.8072 deg Eccentricity: 0.0016232 Arg of perigee: 272.3973 deg Mean anomaly: 087.5370 deg Mean motion: 14.61039082 rev/day Decay rate: 4.90e-06 rev/day^2 Epoch rev: 39808 Checksum: 324
Satellite: FALCON Catalog number: 30776 Epoch time: 13107.52715125 Element set: 593 Inclination: 035.4303 deg RA of node: 214.3756 deg Eccentricity: 0.0001519 Arg of perigee: 167.7222 deg Mean anomaly: 258.8924 deg Mean motion: 15.10122328 rev/day Decay rate: 3.656e-05 rev/day^2 Epoch rev: 33624 Checksum: 278
Satellite: MAST Catalog number: 31126 Epoch time: 13107.55768002 Element set: 731 Inclination: 097.8795 deg RA of node: 106.9492 deg Eccentricity: 0.0092246 Arg of perigee: 241.1917 deg Mean anomaly: 266.7071 deg Mean motion: 14.54508265 rev/day Decay rate: 3.42e-06 rev/day^2 Epoch rev: 31850 Checksum: 297
Satellite: CAPE1 Catalog number: 31130 Epoch time: 13106.50059898 Element set: 740 Inclination: 097.8959 deg RA of node: 102.2836 deg Eccentricity: 0.0099379 Arg of perigee: 259.9411 deg Mean anomaly: 099.0562 deg Mean motion: 14.53404489 rev/day Decay rate: 5.31e-06 rev/day^2 Epoch rev: 31781 Checksum: 323
Satellite: COMPASS Catalog number: 32787 Epoch time: 13108.74374269 Element set: 599 Inclination: 097.7578 deg RA of node: 168.8408 deg Eccentricity: 0.0016155 Arg of perigee: 136.4125 deg Mean anomaly: 338.1964 deg Mean motion: 14.85232767 rev/day Decay rate: 9.96e-06 rev/day^2 Epoch rev: 26914 Checksum: 357
Satellite: AAUSAT2 Catalog number: 32788 Epoch time: 13108.14778038 Element set: 585 Inclination: 097.7585 deg RA of node: 168.8412 deg Eccentricity: 0.0015664 Arg of perigee: 138.0893 deg Mean anomaly: 248.3784 deg Mean motion: 14.85665646 rev/day Decay rate: 1.817e-05 rev/day^2 Epoch rev: 26909 Checksum: 362
Satellite: DO-64 Catalog number: 32789 Epoch time: 13108.76379323 Element set: 614 Inclination: 097.7735 deg RA of node: 172.8758 deg Eccentricity: 0.0015319 Arg of perigee: 130.7367 deg Mean anomaly: 017.5374 deg Mean motion: 14.88064289 rev/day Decay rate: 2.183e-05 rev/day^2 Epoch rev: 26928 Checksum: 352
Satellite: CO-66 Catalog number: 32791 Epoch time: 13108.18720934 Element set: 582 Inclination: 097.7584 deg RA of node: 167.7373 deg Eccentricity: 0.0016558 Arg of perigee: 139.0742 deg Mean anomaly: 254.5691 deg Mean motion: 14.84421871 rev/day Decay rate: 7.66e-06 rev/day^2 Epoch rev: 26897 Checksum: 354
Satellite: RS-30 Catalog number: 32953 Epoch time: 13108.49985085 Element set: 777 Inclination: 082.4976 deg RA of node: 105.3086 deg Eccentricity: 0.0019202 Arg of perigee: 007.6124 deg Mean anomaly: 352.5241 deg Mean motion: 12.43033098 rev/day Decay rate: 1.0e-07 rev/day^2 Epoch rev: 22249 Checksum: 286
Satellite: METEOR-M Catalog number: 35865 Epoch time: 13108.76408937 Element set: 377 Inclination: 098.6083 deg RA of node: 162.6291 deg Eccentricity: 0.0001571 Arg of perigee: 246.8504 deg Mean anomaly: 113.2507 deg Mean motion: 14.21883382 rev/day Decay rate: -8.0e-08 rev/day^2 Epoch rev: 18602 Checksum: 302
Satellite: RS-38 Catalog number: 35869 Epoch time: 13108.73710540 Element set: 349 Inclination: 098.6032 deg RA of node: 162.5344 deg Eccentricity: 0.0003756 Arg of perigee: 245.9821 deg Mean anomaly: 114.0968 deg Mean motion: 14.22121911 rev/day Decay rate: 7.0e-07 rev/day^2 Epoch rev: 18604 Checksum: 293
Satellite: JUGNU Catalog number: 37839 Epoch time: 13108.66161826 Element set: 369 Inclination: 019.9624 deg RA of node: 307.4589 deg Eccentricity: 0.0019089 Arg of perigee: 347.5534 deg Mean anomaly: 076.2653 deg Mean motion: 14.12142541 rev/day Decay rate: 3.91e-06 rev/day^2 Epoch rev: 7847 Checksum: 324
Satellite: SRMSAT Catalog number: 37841 Epoch time: 13105.96004434 Element set: 370 Inclination: 019.9730 deg RA of node: 334.6506 deg Eccentricity: 0.0011813 Arg of perigee: 272.7858 deg Mean anomaly: 206.5652 deg Mean motion: 14.10214500 rev/day Decay rate: 3.80e-06 rev/day^2 Epoch rev: 7797 Checksum: 276
Satellite: RAX-2 Catalog number: 37853 Epoch time: 13108.08704682 Element set: 478 Inclination: 101.7181 deg RA of node: 293.8964 deg Eccentricity: 0.0237588 Arg of perigee: 199.6645 deg Mean anomaly: 309.0989 deg Mean motion: 14.82910908 rev/day Decay rate: 5.337e-05 rev/day^2 Epoch rev: 7953 Checksum: 359
Satellite: AUBIESAT Catalog number: 37854 Epoch time: 13106.04872914 Element set: 473 Inclination: 101.7212 deg RA of node: 291.6561 deg Eccentricity: 0.0237760 Arg of perigee: 204.3206 deg Mean anomaly: 303.6771 deg Mean motion: 14.83532309 rev/day Decay rate: 6.227e-05 rev/day^2 Epoch rev: 7924 Checksum: 285
Satellite: HRBE Catalog number: 37855 Epoch time: 13107.50222457 Element set: 471 Inclination: 101.7215 deg RA of node: 293.5891 deg Eccentricity: 0.0238600 Arg of perigee: 200.5292 deg Mean anomaly: 194.4470 deg Mean motion: 14.83252178 rev/day Decay rate: 5.760e-05 rev/day^2 Epoch rev: 7945 Checksum: 293
Satellite: RS-39 Catalog number: 38051 Epoch time: 13108.69974774 Element set: 360 Inclination: 051.6342 deg RA of node: 137.3245 deg Eccentricity: 0.0013235 Arg of perigee: 049.6791 deg Mean anomaly: 057.4414 deg Mean motion: 15.30829414 rev/day Decay rate: 1.3815e-04 rev/day^2 Epoch rev: 6866 Checksum: 314
Satellite: E-STAR Catalog number: 38079 Epoch time: 13108.64499713 Element set: 50 Inclination: 069.4822 deg RA of node: 324.8175 deg Eccentricity: 0.0647396 Arg of perigee: 215.4302 deg Mean anomaly: 140.2112 deg Mean motion: 14.38845795 rev/day Decay rate: 3.4439e-04 rev/day^2 Epoch rev: 6115 Checksum: 310
